Regional Weather Roundup
Issued by NWS Grand Forks, ND

Home | Current Version | Previous Version | Text Only | Print | Product List | Glossary Off
Versions: 1 2 3 4 5 6 7 8 9 10 11 12 13 14 15 16 17 18 19 20 21 22 23 24 25 26 27 28 29 30 31 32 33 34 35 36 37 38 39 40 41 42 43 44 45 46 47 48 49 50

000
ASUS43 KFGF 261631
RWRFGF
PRAIRIE TO PINES  WEATHER ROUNDUP
NATIONAL WEATHER SERVICE EASTERN NORTH DAKOTA/GRAND FORKS ND
1000 AM CST WED NOV 26 2014

 **SATELLITE DATA USED TO AUGMENT SKY COVER AT AUTOMATED STATIONS**
 *****  WEATHER ACROSS EASTERN NORTH DAKOTA  *****

CITY           SKY/WX    TMP DP  RH WIND       PRES   REMARKS
GRAND FORKS    CLOUDY     0  -7  72 N15       30.44R WCI -19
GRAND FRKS AFB CLOUDY    -2  -8  78 N14       30.44R WCI -21
GRAND FRKS NWS   N/A      0 N/A N/A N13         N/A  WCI -18
DEVILS LAKE    CLOUDY     1 -11  55 N10       30.37R WCI -14
FARGO          CLOUDY     4  -3  73 N16       30.37R WCI -15
WAHPETON ARPT  CLOUDY     9   1  72 N16       30.34R WCI  -9
$$

 ***** WEATHER ACROSS CENTRAL AND WESTERN NORTH DAKOTA  *****

CITY           SKY/WX    TMP DP  RH WIND       PRES   REMARKS
BISMARCK       LGT SNOW   8   2  76 E6        30.36R WCI  -2
MINOT          CLOUDY     2  -3  80 N5        30.38R HAZE    WCI  -8
JAMESTOWN      CLOUDY     2  -6  69 N13       30.35R WCI -15
MINOT AFB      CLOUDY     1  -2  85 N3        30.39R
GARRISON         N/A      7   2  80 NE3       30.33R
WILLISTON      CLOUDY    10   4  76 N9        30.34R WCI  -3
DICKINSON      CLOUDY    18  14  84 NE5       30.24R WCI  11
HETTINGER      LGT SNOW  22  19  89 CALM      30.24R FOG
$$

 *****  OTHER AIRPORT OBSERVATIONS IN OUR AREA  *****

CITY           SKY/WX    TMP DP  RH WIND       PRES   REMARKS
WALHALLA         N/A     -4  -9  77 NW13      30.47R WCI -23
GRAFTON AIRPOR PTSUNNY   -2  -9  71 N16       30.47R WCI -23
VALLEY CITY AR LGT RAIN   1  -8  66 N13       30.37R WCI -16
CANDO          CLOUDY     0  -8  71 N12       30.41R WCI -18
CAVALIER APRT  FAIR      -2  -9  71 N15       30.46S WCI -22
GWINNER        MOSUNNY    5  -4  66 N16G23    30.37R WCI -14
ROLLA          FAIR      -4  -9  77 NE6       30.38R WCI -16
 ***** THE ABOVE OBSERVATIONS ARE NON NWS ARE NOT QUALITY
       CONTROLLED AND MAY MIS-REPORT RAIN FOR SNOW...
$$

  *****  WEATHER ACROSS NORTHERN MINNESOTA  *****

CITY           SKY/WX    TMP DP  RH WIND       PRES   REMARKS
FLAG ISLAND    SUNNY     -6 -11  77 N10       30.35R WCI -23
WARROAD        SUNNY     -4 -11  71 NW7       30.37R WCI -18
ROSEAU         SUNNY     -4 -11  71 N8        30.39R WCI -19
HALLOCK        SUNNY     -4 -11  71 N10       30.45R WCI -21
THF RVR FALLS  CLOUDY     0  -8  71 N14       30.37R WCI -19
BAUDETTE       SUNNY     -1  -6  79 NW12      30.32R WCI -18
WASKISH        PTSUNNY    3   0  85 N3        30.30R
CROOKSTON      MOSUNNY    0  -6  78 N16       30.42R WCI -21
STEPHEN NDAWN    N/A     -4  -9  77 VRB12       N/A  WCI -22
GREENBUSH NDAW   N/A     -6 -11  77 N12         N/A  WCI -24
$$
  *****  WEATHER ACROSS CENTRAL AND WEST MINNESOTA  *****

CITY           SKY/WX    TMP DP  RH WIND       PRES   REMARKS
FOSSTON        CLOUDY     3  -6  66 N15       30.33R WCI -15
BEMIDJI        MOSUNNY    6   0  76 N12       30.27R WCI -10
PARK RAPIDS    CLOUDY    11   5  77 N10       30.22R WCI  -3
ELBOW LAKE     FLURRIES  10   6  85 NW15      30.26R WCI  -7
WADENA         CLOUDY    16   9  73 N10       30.22R WCI   3
DETROIT LAKES  MOSUNNY    7   3  85 N16       30.29R WCI -11
MOORHEAD       CLOUDY     3   1  92 N17       30.37R WCI -17
FERGUS FALLS   PTSUNNY    9   1  72 N14       30.32R WCI  -8
MORRIS MN      CLOUDY    12   7  79 NW17G23   30.25R HAZE    WCI  -5
STAPLES        FLURRIES  16  10  79 N14       30.22R WCI   1
$$
  *****  WEATHER ELSEWHERE ACROSS MINNESOTA  *****

CITY           SKY/WX    TMP DP  RH WIND       PRES   REMARKS
DULUTH         PTSUNNY   19  11  70 N12       30.15R WCI   7
INTRNTL FALLS  MOSUNNY    4  -2  76 N10       30.28R WCI -11
ELY            LGT SNOW  14  10  85 N6        30.18R WCI   5
CLOQUET        CLOUDY    19  12  73 N8        30.17R WCI   9
WHEATON        MOSUNNY    5   0  78 NW20G26   30.34R WCI -15
BRAINERD       CLOUDY    17  11  77 N16       30.21R WCI   2
HIBBING        LGT SNOW  15   7  70 N13       30.20R WCI   1
ALEXANDRIA     CLOUDY    18  12  77 N15       30.21R WCI   4
SAINT CLOUD    CLOUDY    23  17  78 N9        30.19R HAZE    WCI  13
MINNEAPOLIS    SNOW      23  20  88 N7        30.18R VSB 1/2 WCI  15
$$

  *****  WEATHER ACROSS SOUTH DAKOTA  *****

CITY           SKY/WX    TMP DP  RH WIND       PRES   REMARKS
SIOUX FALLS    PTSUNNY   21  16  81 N23G29    30.17R WCI   5
BROOKINGS      NOT AVBL
WATERTOWN      CLOUDY     9   4  80 N18       30.22R WCI -10
HURON          MOSUNNY   11   4  73 N22       30.32R WCI  -8
SISSETON         N/A      5   0  79 N24G31    30.31R WCI -17
ABERDEEN       CLOUDY     6  -2  69 N17       30.36R WCI -13
MITCHELL       LGT SNOW  14   9  80 N21       30.30R WCI  -4
PIERRE         CLOUDY    20  13  74 NE9       30.32R WCI   9
MOBRIDGE       CLOUDY    13   7  77 N6        30.29R WCI   4
RAPID CITY     CLOUDY    24  21  88 SE6       30.24R WCI  17
$$

  *****  SOME WEATHER IN NEARBY STATES *****

CITY           SKY/WX    TMP DP  RH WIND       PRES   REMARKS
GLASGOW MT     CLOUDY    22  17  81 SE9       30.27R WCI  12
GREAT FALLS MT LGT SNOW  30  28  93 CALM      30.13S VSB 3/4
CHEYENNE WY    MIX PCPN  24  19  81 CALM      30.16R
SCOTTSBLUFF NE MIX PCPN  29  26  89 W7        30.23R WCI  22
OMAHA NE       CLOUDY    35  29  78 N28G37    30.01R WCI  22
DES MOINES IA  LGT SNOW  30  26  85 E9        29.93R FOG     WCI  22
DAVENPORT IA   CLOUDY    23  19  85 E15       30.07R WCI  10
CHICAGO IL     CLOUDY    24  20  84 S5        30.15S FOG     WCI  18
EAU CLAIRE WI  CLOUDY    23  16  74 NE3       30.15R
LA CROSSE WI   CLOUDY    23  16  74 E7        30.14R WCI  15
$$

  *****  SOME NATIONAL WEATHER *****

CITY           SKY/WX    TMP DP  RH WIND       PRES   REMARKS
LA GUARDIA NY  LGT SNOW  34  32  93 NE13      30.08F FOG     WCI  25
RALEIGH NC     CLOUDY    46  41  82 NE15G22   29.89F
ATLANTA GA     SUNNY     51  27  39 NW15      30.10R
NEW ORLEANS LA MOSUNNY   56  35  45 S7        30.29S
OKLAHOMA CITY  MOSUNNY   50  34  54 N21G28    30.16R
ALBUQUERQUE NM MOSUNNY   43  11  27 S5        30.39R
SALT LAKE CITY MOSUNNY   43  28  55 SE9       30.39R
LOS ANGELES CA SUNNY     63  24  22 NE3       30.23S
BOISE ID       PTCLDY    42  37  82 E6        30.32S
SEATTLE WA     MOCLDY    55  51  86 S13       30.14R
$$

*** WEATHER ACROSS MANITOBA...SASKATCHEWAN AND ONTARIO ***
                ***ONTARIO***

CITY           SKY/WX    TMP DP  RH WIND       PRES   REMARKS
GERALDTON      LGT SNOW N/A N/A N/A NE6         N/A
THUNDER BAY    LGT SNOW  14   9  79 NE7       30.24R WCI   4
SIOUX LOOKOUT  MOSUNNY   -9 -15  77 NW6       30.29R WCI -23
TORONTO        CLOUDY    34  23  64 NE9       30.16F
BIG TROUT LK   SUNNY    -20 -27  69 W6        30.29R WCI -36
PICKLE LAKE    MOSUNNY  -18 -26  69 W6        30.27R WCI -33
DRYDEN         SUNNY     -6 -11  77 N7        30.28R WCI -20
KENORA         MOSUNNY   -8 -13  77 N6        30.32R WCI -21
$$
                *** MANITOBA***

CITY           SKY/WX    TMP DP  RH WIND       PRES   REMARKS
BRANDON        MOSUNNY   -6 -11  77 N6        30.44R WCI -18
DAUPHIN        SUNNY    -15 -20  76 W7        30.48R WCI -31
ISLAND LAKE    SUNNY    -20 -27  69 W9        30.37R WCI -40
PILOT MOUND      N/A     -8 -13  77 N8          N/A  WCI -23
THE PAS        CLEAR    -17 -22  76 NW6       30.47R WCI -31
THOMPSON       PTCLDY   -22 -29  69 NW6       30.39R WCI -38
WINNIPEG       CRYSTALS -11 -17  77 NW12      30.48R WCI -31
LYNN LAKE      CLEAR    -20 -26  76 W7        30.35S WCI -37
CHURCHILL      CLEAR    -11 -18  70 W13       30.26S WCI -32
GILLAM         CLEAR    -18 -26  69 W10       30.32R WCI -39
$$
                ***SASKATCHEWAN***

CITY           SKY/WX    TMP DP  RH WIND       PRES   REMARKS
ESTEVAN        PTSUNNY   -2  -8  78 NE7       30.37R WCI -16
KINDERSLEY     CLOUDY    10   7  85 SE8       30.27  WCI  -1
LLOYDMINSTER   CLOUDY     1  -2  85 SE7       30.25R WCI -11
PRINCE ALBERT  CRYSTALS -24 -31  69 CALM      30.46R FOG
REGINA         PTCLDY    -9 -13  84 VRB2      30.39R
YORKTON        CLOUDY   -11 -15  84 SW5       30.42R WCI -23
N. BATTLEFORD  FLURRIES  -2  -6  84 E10       30.37R WCI -19
LA RONGE       CLEAR    -24 -29  76 CALM      30.44R
SASKATOON      CRYSTALS   3   0  85 E5        30.40R WCI  -6
SWIFT CURRENT  FLURRIES  10   9  92 SE10      30.24S WCI  -3
$$
NOTE: THESE ARE AUTOMATED STATIONS WITH LIMITED QUALITY CONTROL
      "FAIR" INDICATES FEW OR NO CLOUDS BELOW 12,000 FEET WITH NO
      SIGNIFICANT WEATHER AND/OR OBSTRUCTIONS TO VISIBILITY.
      SKY/WX - SKY CONDITION AND SIGNIFICANT WEATHER.
      TMP - AIR TEMPERATURE.    DP   - DEWPOINT TEMPERATURE.
      RH  - RELATIVE HUMIDITY.  PRES - PRESSURE.
      HX  - HEAT INDEX.         WCI  - WIND CHILL INDEX.
$


USA.gov is the U.S. government's official web portal to all federal, state and local government web resources and services.